[[{"header":{"parameterUnit":"m.s-1","parameterCategory":1,"la1":30.2991,"la2":30.254,"lo1":-89.0895,"lo2":-89.0444,"dy":0.0017,"dx":0.0017,"nx":28,"ny":28,"refTime":"2024-02-07T09:00:00:Z","depth":0,"parameterNumber":2,"parameterNumberName":"U-component_of_WINDS"},"data":[0,0,0,0,0,0,0,0,0,0,0,0,0,0,0,0,0,0,0,0,0,0,0,0,0,0,0,0,0,0,0,0,0,0,0,0,0,0,0,0,0,0,0,0,0,0,0,0,0,0,0,0,0,0,0,0,0,0,-2.456,-2.456,0,-2.461,-2.4611,-2.4611,-2.4601,-2.4601,-2.46,-2.4599,-2.4649,-2.4651,-2.4653,0,0,0,0,0,0,0,0,0,0,0,0,0,-2.4456,-2.4458,-2.456,-2.4561,-2.4561,-2.461,-2.4611,-2.4611,-2.4602,-2.4601,-2.4599,-2.4598,-2.4648,-2.4651,-2.4653,0,0,0,0,0,0,0,0,0,0,0,0,0,-2.4503,-2.4458,-2.456,-2.4562,-2.4563,-2.461,-2.4611,-2.4612,-2.4602,-2.4601,-2.4599,-2.4598,-2.4647,-2.465,-2.4654,-2.4701,0,0,-2.4663,-2.4665,0,0,0,0,0,0,0,0,-2.45,-2.4507,-2.4561,-2.4562,-2.4563,-2.4598,-2.4592,-2.4641,-2.4602,-2.4587,-2.4599,-2.4597,-2.4633,-2.4637,-2.465,-2.4703,-2.4705,-2.4664,-2.4666,-2.4667,-2.4668,0,0,0,0,0,0,0,-2.4497,-2.4504,-2.458,-2.4562,-2.4563,-2.4561,-2.4566,-2.4602,-2.4617,-2.4588,-2.4588,-2.4594,-2.4633,-2.4646,-2.4651,-2.4706,-2.4664,-2.4667,-2.4669,-2.467,-2.4803,-2.4804,0,0,0,0,0,0,-2.4493,-2.4502,-2.4578,-2.4581,-2.4528,-2.4564,-2.457,-2.4588,-2.4617,-2.462,-2.4595,-2.4593,-2.4642,-2.4647,-2.4652,-2.471,-2.4667,-2.467,-2.4672,-2.4801,-2.4803,-2.4805,0,0,0,0,0,0,-2.4491,-2.45,-2.4576,-2.4541,-2.4551,-2.4567,-2.4588,-2.459,-2.4603,-2.4622,-2.4624,-2.4606,-2.4641,-2.4648,-2.4689,-2.4712,-2.4672,-2.4675,-2.4799,-2.4802,-2.4804,-2.4826,0,0,0,0,0,0,-2.4488,-2.4499,-2.4517,-2.4542,-2.4553,-2.4612,-2.4589,-2.4592,-2.4609,-2.4607,-2.4632,-2.4635,-2.464,-2.4685,-2.4693,-2.4716,-2.4677,-2.4797,-2.48,-2.4803,-2.4824,-2.4829,-2.4834,0,0,0,0,0,-2.4484,-2.4521,-2.4518,-2.4527,-2.4576,-2.4613,-2.462,-2.4625,-2.4611,-2.4629,-2.4641,-2.4634,-2.4709,-2.4689,-2.4698,-2.4722,-2.4796,-2.48,-2.4803,-2.4821,-2.4828,-2.4834,0,0,0,0,0,0,-2.4497,-2.4524,-2.4521,-2.4567,-2.4588,-2.4612,-2.4635,-2.4632,-2.4657,-2.4654,-2.4659,-2.4665,-2.4708,-2.4719,-2.4697,-2.4771,-2.475,-2.4756,-2.4761,-2.4768,-2.4773,-2.4769,-2.468,0,0,0,0,0,-2.4505,-2.4534,-2.4556,-2.4594,-2.4605,-2.4618,-2.4635,-2.4637,-2.4659,-2.4668,-2.4683,-2.4704,-2.4733,-2.4751,-2.4778,-2.4826,-2.4832,-2.4847,-2.4852,-2.4857,-2.4861,-2.4888,-2.4896,-2.4816,-2.4816,-2.4816,0,0,-2.4522,-2.454,-2.4558,-2.4597,-2.4614,-2.4643,-2.4626,-2.4657,-2.4679,-2.4673,-2.4713,-2.4725,-2.4749,-2.4795,-2.4815,-2.4806,-2.4885,-2.4861,-2.4864,-2.4866,-2.4893,-2.49,-2.4907,-2.4819,-2.4818,-2.4818,0,0,-2.4568,-2.4585,-2.4619,-2.4637,-2.4663,-2.4672,-2.468,-2.4705,-2.4713,-2.4754,-2.475,-2.4777,-2.4825,-2.4843,-2.4858,-2.4914,-2.4909,-2.4923,-2.4949,-2.4976,-2.4982,-2.4988,-2.5008,-2.5015,-2.4927,-2.4927,-2.4927,0,-2.4586,-2.463,-2.4637,-2.467,-2.4687,-2.4684,-2.4719,-2.4736,-2.4769,-2.4781,-2.4771,-2.4832,-2.4848,-2.4898,-2.4912,-2.4925,-2.4935,-2.4919,-2.4981,-2.4986,-2.4992,-2.5011,-2.5019,-2.4929,-2.4929,-2.4928,-2.4928,0,-2.4651,-2.4682,-2.4707,-2.474,-2.4761,-2.4794,-2.4806,-2.4827,-2.4828,-2.4839,-2.4881,-2.4901,-2.4932,-2.4945,-2.4946,-2.4995,-2.4989,-2.4979,-2.4959,-2.5001,-2.5019,-2.5026,-2.4931,-2.493,-2.493,-2.493,0,0,-2.4705,-2.4743,-2.4752,-2.4768,-2.4797,-2.4821,-2.4856,-2.4887,-2.4905,-2.4929,-2.4958,-2.5,-2.4992,-2.501,-2.5013,-2.5037,-2.5081,-2.5025,-2.5025,-2.5034,-2.5137,-2.5144,-2.5152,-2.5078,-2.508,-2.5081,-2.5135,0,-2.4754,-2.4814,-2.4822,-2.4876,-2.4905,-2.4904,-2.4933,-2.4955,-2.4966,-2.4993,-2.5005,-2.5035,-2.5022,-2.5033,-2.5057,-2.507,-2.5101,-2.5067,-2.5105,-2.5106,-2.5098,-2.5162,-2.5169,-2.5219,-2.5142,-2.5144,-2.5145,0,-2.4818,-2.4845,-2.4902,-2.4929,-2.4942,-2.4968,-2.4999,-2.5025,-2.505,-2.5056,-2.5077,-2.5078,-2.5114,-2.5094,-2.5144,-2.512,-2.5137,-2.5146,-2.5148,-2.5151,-2.5127,-2.5167,-2.5235,-2.5243,-2.5156,-2.5155,-2.5154,0,-2.4852,-2.4902,-2.4943,-2.4957,-2.4989,-2.5008,-2.5023,-2.5046,-2.5066,-2.5093,-2.5105,-2.5136,-2.5152,-2.5176,-2.5186,-2.517,-2.5236,-2.5215,-2.5242,-2.5242,-2.5255,-2.5254,-2.5327,-2.5267,-2.5267,-2.5267,-2.5266,0,-2.4906,-2.494,-2.4959,-2.4984,-2.5023,-2.5033,-2.5072,-2.5085,-2.5107,-2.5135,-2.5136,-2.5162,-2.5174,-2.5202,-2.521,-2.5251,-2.5258,-2.5265,-2.5266,-2.5264,-2.5264,-2.5275,-2.5271,-2.5269,-2.5268,-2.5268,-2.5267,0,-2.4949,-2.4963,-2.5008,-2.5036,-2.5044,-2.5071,-2.5095,-2.512,-2.5132,-2.5167,-2.5176,-2.5195,-2.5228,-2.5241,-2.5282,-2.5287,-2.5334,-2.5333,-2.5326,-2.5326,-2.5352,-2.535,-2.5435,-2.5447,-2.5378,-2.5379,-2.538,0,-2.4983,-2.501,-2.5041,-2.506,-2.5075,-2.5106,-2.5126,-2.5137,-2.5158,-2.5189,-2.521,-2.5244,-2.5271,-2.5325,-2.5342,-2.5374,-2.5374,-2.5401,-2.5378,-2.5376,-2.5374,-2.5372,-2.5376,-2.5405,-2.5406,-2.5407,-2.5407,0,-2.504,-2.5046,-2.5075,-2.5107,-2.5131,-2.5156,-2.5181,-2.5196,-2.5211,-2.5235,-2.5269,-2.5291,-2.5333,-2.5367,-2.54,-2.5415,-2.5414,-2.5415,-2.5422,-2.542,-2.5415,-2.5419,-2.5337,-2.5412,-2.5412,-2.5411,-2.5411,-2.5411,-2.508,-2.5104,-2.5131,-2.5163,-2.5183,-2.5207,-2.5232,-2.5247,-2.5276,-2.5312,-2.5317,-2.5354,-2.538,-2.5424,-2.5441,-2.5471,-2.5464,-2.5475,-2.5478,-2.548,-2.5482,-2.5411,-2.5477,-2.5477,-2.5477,-2.5477,-2.5477,0,-2.5138,-2.5155,-2.5185,-2.522,-2.5246,-2.5243,-2.5271,-2.5293,-2.5326,-2.5351,-2.5378,-2.5419,-2.5452,-2.5473,-2.5506,-2.5526,-2.5527,-2.5535,-2.5533,-2.5537,-2.5487,-2.5477,-2.5534,-2.5534,-2.5534,-2.5534,-2.5534,-2.5534,-2.5171,-2.5213,-2.5222,-2.5274,-2.5291,-2.5328,-2.5344,-2.5366,-2.5386,-2.5431,-2.5459,-2.5473,-2.5496,-2.5531,-2.5562,-2.5567,-2.558,-2.5588,-2.5593,-2.5546,-2.554,-2.5534,-2.5525,-2.5591,-2.5591,-2.564,-2.5641,-2.5641]},{"header":{"parameterUnit":"m.s-1","parameterCategory":1,"la1":30.2991,"la2":30.254,"lo1":-89.0895,"lo2":-89.0444,"dy":0.0017,"dx":0.0017,"nx":28,"ny":28,"refTime":"2024-02-07T09:00:00:Z","depth":0,"parameterNumber":3,"parameterNumberName":"V-component_of_WINDS"},"data":[0,0,0,0,0,0,0,0,0,0,0,0,0,0,0,0,0,0,0,0,0,0,0,0,0,0,0,0,0,0,0,0,0,0,0,0,0,0,0,0,0,0,0,0,0,0,0,0,0,0,0,0,0,0,0,0,0,0,1.5662,1.5664,0,1.5772,1.5773,1.5774,1.5792,1.5791,1.579,1.5789,1.5904,1.5908,1.5912,0,0,0,0,0,0,0,0,0,0,0,0,0,1.5474,1.5477,1.5662,1.5664,1.5665,1.5772,1.5773,1.5775,1.5792,1.5791,1.579,1.5789,1.5903,1.5907,1.5912,0,0,0,0,0,0,0,0,0,0,0,0,0,1.5567,1.5478,1.5662,1.5687,1.569,1.5771,1.5773,1.5775,1.5792,1.5791,1.5789,1.5788,1.5901,1.5907,1.5913,1.5978,0,0,1.5931,1.5934,0,0,0,0,0,0,0,0,1.5561,1.5574,1.5682,1.5685,1.5689,1.5767,1.5749,1.5843,1.5793,1.5754,1.5789,1.5787,1.586,1.5869,1.5893,1.5984,1.5989,1.5931,1.5935,1.5938,1.5939,0,0,0,0,0,0,0,1.5555,1.5569,1.5706,1.5683,1.5688,1.5694,1.5705,1.5767,1.5814,1.5757,1.5758,1.5771,1.5861,1.5887,1.5896,1.599,1.5931,1.5937,1.594,1.5943,1.6146,1.6148,0,0,0,0,0,0,1.5544,1.5564,1.5702,1.5709,1.562,1.5698,1.5711,1.5743,1.5813,1.5822,1.5772,1.5771,1.5878,1.5889,1.59,1.5985,1.5938,1.5943,1.5947,1.6144,1.6146,1.6148,0,0,0,0,0,0,1.5539,1.5556,1.5698,1.5637,1.5655,1.5703,1.5739,1.5746,1.5772,1.5824,1.5833,1.5789,1.5877,1.5891,1.596,1.5989,1.5946,1.5951,1.6142,1.6145,1.6147,1.6152,0,0,0,0,0,0,1.5534,1.5554,1.5578,1.5637,1.5659,1.5754,1.574,1.5749,1.5782,1.5782,1.5843,1.5852,1.5877,1.5951,1.5965,1.5996,1.5956,1.614,1.6143,1.6147,1.615,1.6155,1.6159,0,0,0,0,0,1.5527,1.5575,1.5579,1.5596,1.5689,1.5756,1.5768,1.5795,1.5784,1.5809,1.5844,1.585,1.5983,1.5957,1.5974,1.6007,1.6138,1.6142,1.6146,1.6148,1.6154,1.6159,0,0,0,0,0,0,1.5518,1.5583,1.5588,1.5656,1.57,1.5758,1.5791,1.58,1.5849,1.5848,1.588,1.5894,1.5962,1.5991,1.5962,1.6077,1.606,1.6067,1.6055,1.6061,1.6066,1.6058,1.5961,0,0,0,0,0,1.5523,1.5571,1.5625,1.568,1.5702,1.5743,1.5773,1.579,1.5838,1.5857,1.5896,1.5943,1.5996,1.603,1.6081,1.6154,1.617,1.6185,1.619,1.6194,1.62,1.6246,1.6254,1.6162,1.6162,1.6162,0,0,1.5536,1.5577,1.5605,1.5679,1.5715,1.5766,1.5758,1.5811,1.585,1.5865,1.5933,1.5963,1.6018,1.609,1.6124,1.6117,1.623,1.6199,1.6201,1.6206,1.6251,1.626,1.6267,1.6165,1.6164,1.6164,0,0,1.5585,1.5619,1.567,1.5708,1.5763,1.579,1.5803,1.5861,1.5882,1.595,1.5964,1.6011,1.61,1.614,1.6172,1.624,1.6249,1.6256,1.6281,1.6325,1.6332,1.6339,1.6367,1.6376,1.6262,1.6262,1.6262,0,1.5593,1.5668,1.5696,1.5749,1.5783,1.5799,1.5853,1.5888,1.5958,1.5982,1.5973,1.6088,1.6126,1.6209,1.6226,1.625,1.6269,1.625,1.6329,1.6336,1.6343,1.637,1.638,1.6263,1.6263,1.6263,1.6263,0,1.5679,1.5731,1.5766,1.5833,1.5871,1.5924,1.5962,1.5997,1.6012,1.6041,1.6113,1.6159,1.6222,1.6243,1.6258,1.633,1.6325,1.6322,1.6306,1.6352,1.6378,1.6388,1.6264,1.6264,1.6264,1.6263,0,0,1.5724,1.5807,1.582,1.5852,1.5916,1.5958,1.6014,1.6075,1.6106,1.6154,1.6204,1.6281,1.628,1.6316,1.6336,1.6374,1.643,1.6367,1.6369,1.638,1.6518,1.6522,1.6533,1.6436,1.6438,1.6439,1.6515,0,1.5782,1.5881,1.5909,1.5993,1.6044,1.6062,1.6111,1.6157,1.6186,1.6236,1.6269,1.6324,1.6316,1.6339,1.6378,1.6415,1.6459,1.641,1.6486,1.6488,1.6474,1.6546,1.6549,1.6618,1.6525,1.6526,1.6528,0,1.5864,1.5914,1.6004,1.6065,1.6087,1.613,1.6191,1.6236,1.629,1.631,1.6352,1.6369,1.6432,1.6411,1.6499,1.6466,1.6499,1.6522,1.6526,1.6536,1.6512,1.6561,1.664,1.6652,1.6543,1.6542,1.6541,0,1.5892,1.5982,1.6049,1.6075,1.6147,1.6178,1.6209,1.6261,1.6298,1.6351,1.6376,1.6436,1.647,1.6517,1.6552,1.6533,1.6639,1.662,1.666,1.6659,1.6682,1.6681,1.6771,1.6699,1.6699,1.6698,1.6698,0,1.5956,1.6011,1.6063,1.6104,1.6167,1.6199,1.6262,1.6294,1.6342,1.6391,1.641,1.6457,1.6498,1.6551,1.6579,1.665,1.6664,1.6684,1.6692,1.6684,1.6682,1.6708,1.6705,1.6701,1.6701,1.67,1.67,0,1.5999,1.6035,1.6109,1.6172,1.6189,1.6233,1.6288,1.633,1.6361,1.6424,1.6441,1.649,1.6554,1.6593,1.6674,1.6693,1.6773,1.6776,1.6755,1.6758,1.6797,1.6794,1.6909,1.6927,1.684,1.6841,1.6841,0,1.6039,1.6082,1.6149,1.6184,1.6216,1.627,1.6308,1.6343,1.6382,1.6449,1.6484,1.6549,1.6603,1.6705,1.675,1.6813,1.6821,1.6857,1.683,1.6823,1.6826,1.6824,1.6831,1.6862,1.6862,1.6863,1.6864,0,1.6107,1.6124,1.6177,1.6237,1.6282,1.6331,1.638,1.6408,1.6452,1.6495,1.6561,1.6603,1.6686,1.6753,1.682,1.6856,1.6869,1.6871,1.6885,1.6879,1.6866,1.6877,1.677,1.6869,1.6868,1.6868,1.6868,1.6867,1.6152,1.6193,1.6248,1.6307,1.6348,1.6395,1.6438,1.6475,1.653,1.6601,1.6618,1.6688,1.6745,1.6838,1.6875,1.6932,1.6927,1.6945,1.695,1.6955,1.6958,1.6855,1.6944,1.6944,1.6944,1.6944,1.6944,0,1.6225,1.6261,1.6316,1.6385,1.6433,1.6439,1.6495,1.6535,1.6596,1.6647,1.6701,1.6779,1.6844,1.6894,1.6962,1.6999,1.7007,1.7016,1.7015,1.7024,1.6957,1.694,1.7008,1.7008,1.7008,1.7008,1.7008,1.7008,1.6268,1.6339,1.6362,1.6454,1.6491,1.6559,1.6591,1.6635,1.6677,1.6763,1.6817,1.6849,1.6901,1.6974,1.7035,1.7049,1.7074,1.7083,1.7098,1.7035,1.7028,1.7021,1.7006,1.7087,1.7087,1.7161,1.7162,1.7162]}]]